• In Netherlands
  • List of Countries
  • For 7 days
  • Water Temperature
  • Satellite Maps
  • Weather Map
  • Weather Widgets
  • user-avatar
    Login

    Hourly Weather Nakhchivan

    Today, 28 July, Friday

    Time Temperature Precipitation Wind Pressure Humidity
    00:00 +30°C° 0 mm 2 mps 686 mmHg 39%
    01:00 +29°C° 0 mm 2 mps 686 mmHg 40%
    02:00 +29°C° 0 mm 2 mps 686 mmHg 41%
    03:00 +28°C° 0 mm 2 mps 686 mmHg 42%
    04:00 +29°C° 0 mm 2 mps 686 mmHg 41%
    05:00 +29°C° 0 mm 2 mps 686 mmHg 40%
    06:00 +29°C° 0 mm 1 mps 686 mmHg 39%
    07:00 +31°C° 0 mm 1 mps 686 mmHg 34%
    08:00 +34°C° 0 mm 2 mps 687 mmHg 29%
    09:00 +36°C° 0 mm 2 mps 687 mmHg 24%
    10:00 +37°C° 0 mm 2 mps 687 mmHg 22%
    11:00 +39°C° 0 mm 2 mps 687 mmHg 19%
    12:00 +40°C° 0 mm 3 mps 687 mmHg 16%
    13:00 +42°C° 0 mm 3 mps 687 mmHg 15%
    14:00 +42°C° 0 mm 3 mps 686 mmHg 13%
    15:00 +43°C° 0 mm 3 mps 686 mmHg 12%
    16:00 +43°C° 0 mm 3 mps 686 mmHg 12%
    17:00 +42°C° 0 mm 3 mps 686 mmHg 13%
    18:00 +42°C° 0 mm 3 mps 686 mmHg 13%
    19:00 +39°C° 0 mm 3 mps 686 mmHg 16%
    20:00 +37°C° 0 mm 3 mps 686 mmHg 19%
    21:00 +35°C° 0 mm 2 mps 686 mmHg 22%
    22:00 +34°C° 0 mm 2 mps 686 mmHg 23%
    23:00 +32°C° 0 mm 2 mps 686 mmHg 24%

    Tomorrow, 29 July, Saturday

    Time Temperature Precipitation Wind Pressure Humidity
    00:00 +31°C° 0 mm 2 mps 686 mmHg 25%
    01:00 +31°C° 0 mm 2 mps 686 mmHg 26%
    02:00 +30°C° 0 mm 2 mps 686 mmHg 27%
    03:00 +29°C° 0 mm 2 mps 686 mmHg 27%
    04:00 +30°C° 0 mm 1 mps 686 mmHg 28%
    05:00 +30°C° 0 mm 1 mps 686 mmHg 28%
    06:00 +30°C° 0 mm 1 mps 686 mmHg 28%
    07:00 +32°C° 0 mm 1 mps 686 mmHg 25%
    08:00 +34°C° 0 mm 1 mps 686 mmHg 21%
    09:00 +35°C° 0 mm 1 mps 687 mmHg 18%
    10:00 +37°C° 0 mm 1 mps 686 mmHg 16%
    11:00 +39°C° 0 mm 2 mps 686 mmHg 14%
    12:00 +40°C° 0 mm 2 mps 686 mmHg 13%
    13:00 +41°C° 0 mm 2 mps 686 mmHg 11%
    14:00 +42°C° 0 mm 2 mps 686 mmHg 10%
    15:00 +43°C° 0 mm 3 mps 685 mmHg 9%
    16:00 +43°C° 0 mm 3 mps 685 mmHg 10%
    17:00 +42°C° 0 mm 3 mps 685 mmHg 10%
    18:00 +42°C° 0 mm 4 mps 685 mmHg 11%
    19:00 +39°C° 0 mm 3 mps 685 mmHg 14%
    20:00 +37°C° 0 mm 3 mps 686 mmHg 18%
    21:00 +35°C° 0 mm 3 mps 686 mmHg 21%
    22:00 +34°C° 0 mm 3 mps 686 mmHg 24%
    23:00 +33°C° 0 mm 3 mps 686 mmHg 27%

    Day after tomorrow, 30 July, Sunday

    Time Temperature Precipitation Wind Pressure Humidity
    00:00 +31°C° 0 mm 3 mps 686 mmHg 29%
    01:00 +30°C° 0 mm 2 mps 686 mmHg 31%
    02:00 +30°C° 0 mm 2 mps 686 mmHg 34%
    03:00 +29°C° 0 mm 2 mps 686 mmHg 36%
    04:00 +29°C° 0 mm 2 mps 687 mmHg 37%
    05:00 +29°C° 0 mm 2 mps 687 mmHg 38%
    06:00 +29°C° 0 mm 2 mps 687 mmHg 40%
    07:00 +30°C° 0 mm 2 mps 687 mmHg 37%
    08:00 +32°C° 0 mm 2 mps 687 mmHg 34%
    09:00 +34°C° 0 mm 2 mps 688 mmHg 31%
    10:00 +35°C° 0 mm 2 mps 687 mmHg 28%
    11:00 +37°C° 0 mm 2 mps 687 mmHg 24%
    12:00 +38°C° 0 mm 2 mps 687 mmHg 21%
    13:00 +39°C° 0 mm 3 mps 687 mmHg 20%
    14:00 +40°C° 0 mm 3 mps 686 mmHg 18%
    15:00 +42°C° 0 mm 4 mps 686 mmHg 17%
    16:00 +41°C° 0 mm 4 mps 686 mmHg 18%
    17:00 +40°C° 0 mm 5 mps 686 mmHg 20%
    18:00 +40°C° 0 mm 5 mps 686 mmHg 22%
    19:00 +37°C° 0 mm 5 mps 686 mmHg 27%
    20:00 +35°C° 0 mm 4 mps 686 mmHg 33%
    21:00 +33°C° 0 mm 3 mps 687 mmHg 38%
    22:00 +33°C° 0 mm 3 mps 687 mmHg 41%
    23:00 +31°C° 0 mm 3 mps 687 mmHg 44%

    31 July, Monday

    Time Temperature Precipitation Wind Pressure Humidity
    00:00 +30°C° 0 mm 2 mps 688 mmHg 46%
    01:00 +30°C° 0 mm 2 mps 688 mmHg 48%
    02:00 +29°C° 0 mm 2 mps 688 mmHg 49%
    03:00 +29°C° 0 mm 2 mps 688 mmHg 50%
    04:00 +29°C° 0 mm 2 mps 688 mmHg 49%
    05:00 +28°C° 0 mm 2 mps 688 mmHg 49%
    06:00 +28°C° 0 mm 2 mps 688 mmHg 48%
    07:00 +30°C° 0 mm 2 mps 688 mmHg 43%
    08:00 +32°C° 0 mm 2 mps 688 mmHg 38%
    09:00 +34°C° 0 mm 2 mps 689 mmHg 34%
    10:00 +36°C° 0 mm 3 mps 689 mmHg 29%
    11:00 +37°C° 0 mm 3 mps 688 mmHg 25%
    12:00 +40°C° 0 mm 4 mps 688 mmHg 21%
    13:00 +41°C° 0 mm 4 mps 688 mmHg 20%
    14:00 +41°C° 0 mm 5 mps 688 mmHg 18%
    15:00 +42°C° 0 mm 5 mps 687 mmHg 17%
    16:00 +42°C° 0 mm 5 mps 687 mmHg 18%
    17:00 +41°C° 0 mm 5 mps 687 mmHg 20%
    18:00 +40°C° 0 mm 5 mps 688 mmHg 21%
    19:00 +37°C° 0 mm 5 mps 688 mmHg 26%
    20:00 +36°C° 0 mm 4 mps 688 mmHg 30%
    21:00 +34°C° 0 mm 3 mps 689 mmHg 35%
    22:00 +33°C° 0 mm 3 mps 689 mmHg 37%
    23:00 +32°C° 0 mm 2 mps 689 mmHg 39%

    1 August, Tuesday

    Time Temperature Precipitation Wind Pressure Humidity
    00:00 +31°C° 0 mm 2 mps 689 mmHg 41%
    01:00 +30°C° 0 mm 2 mps 689 mmHg 43%
    02:00 +30°C° 0 mm 2 mps 689 mmHg 44%
    03:00 +29°C° 0 mm 2 mps 689 mmHg 45%
    04:00 +29°C° 0 mm 2 mps 689 mmHg 45%
    05:00 +29°C° 0 mm 2 mps 689 mmHg 44%
    06:00 +29°C° 0 mm 2 mps 690 mmHg 44%
    07:00 +31°C° 0 mm 2 mps 690 mmHg 39%
    08:00 +32°C° 0 mm 2 mps 690 mmHg 35%
    09:00 +35°C° 0 mm 2 mps 690 mmHg 30%
    10:00 +36°C° 0 mm 2 mps 690 mmHg 27%
    11:00 +37°C° 0 mm 3 mps 690 mmHg 23%
    12:00 +39°C° 0 mm 3 mps 690 mmHg 20%
    13:00 +41°C° 0 mm 4 mps 690 mmHg 19%
    14:00 +41°C° 0 mm 4 mps 689 mmHg 18%
    15:00 +42°C° 0 mm 4 mps 689 mmHg 17%
    16:00 +41°C° 0 mm 4 mps 689 mmHg 18%
    17:00 +41°C° 0 mm 4 mps 689 mmHg 19%
    18:00 +40°C° 0 mm 5 mps 689 mmHg 21%
    19:00 +37°C° 0 mm 4 mps 689 mmHg 25%
    20:00 +36°C° 0 mm 3 mps 690 mmHg 29%
    21:00 +34°C° 0 mm 3 mps 690 mmHg 33%
    22:00 +33°C° 0 mm 3 mps 690 mmHg 35%
    23:00 +31°C° 0 mm 3 mps 690 mmHg 37%

    2 August, Wednesday

    Time Temperature Precipitation Wind Pressure Humidity
    00:00 +30°C° 0 mm 2 mps 690 mmHg 39%
    01:00 +30°C° 0 mm 2 mps 690 mmHg 40%
    02:00 +29°C° 0 mm 2 mps 690 mmHg 41%
    03:00 +29°C° 0 mm 2 mps 690 mmHg 43%
    04:00 +29°C° 0 mm 2 mps 690 mmHg 43%
    05:00 +29°C° 0 mm 2 mps 691 mmHg 43%
    06:00 +29°C° 0 mm 2 mps 691 mmHg 43%
    07:00 +30°C° 0 mm 2 mps 691 mmHg 38%
    08:00 +31°C° 0 mm 2 mps 691 mmHg 34%
    09:00 +34°C° 0 mm 2 mps 691 mmHg 30%
    10:00 +35°C° 0 mm 2 mps 691 mmHg 27%
    11:00 +37°C° 0 mm 3 mps 691 mmHg 24%
    12:00 +38°C° 0 mm 3 mps 690 mmHg 21%
    13:00 +39°C° 0 mm 3 mps 690 mmHg 20%
    14:00 +40°C° 0 mm 4 mps 690 mmHg 19%
    15:00 +41°C° 0 mm 4 mps 689 mmHg 18%
    16:00 +40°C° 0 mm 4 mps 689 mmHg 19%
    17:00 +40°C° 0 mm 4 mps 689 mmHg 20%
    18:00 +38°C° 0 mm 4 mps 689 mmHg 21%
    19:00 +37°C° 0 mm 4 mps 690 mmHg 25%
    20:00 +35°C° 0 mm 3 mps 690 mmHg 30%
    21:00 +33°C° 0 mm 3 mps 690 mmHg 34%
    22:00 +31°C° 0 mm 3 mps 690 mmHg 36%
    23:00 +30°C° 0 mm 2 mps 690 mmHg 39%
    Show more